[[{"header":{"parameterUnit":"m.s-1","parameterCategory":1,"la1":30.2991,"la2":30.254,"lo1":-89.0895,"lo2":-89.0444,"dx":0.0017,"dy":0.0017,"nx":28,"ny":28,"refTime":"2022-12-29T09:00:00:Z","depth":0,"parameterNumber":2,"parameterNumberName":"U-component_of_WINDS"},"data":[0,0,0,0,0,0,0,0,0,0,0,0,0,0,0,0,0,0,0,0,0,0,0,0,0,0,0,0,0,0,0,0,0,0,0,0,0,0,0,0,0,0,0,0,0,0,0,0,0,0,0,0,0,0,0,0,0,0,2.3831,2.3834,0,2.4094,2.4097,2.41,2.4163,2.4162,2.416,2.4158,2.4428,2.4436,2.4445,0,0,0,0,0,0,0,0,0,0,0,0,0,2.3382,2.339,2.3831,2.3834,2.3837,2.4094,2.4098,2.4101,2.4164,2.4162,2.4159,2.4157,2.4425,2.4435,2.4446,0,0,0,0,0,0,0,0,0,0,0,0,0,2.3604,2.3392,2.383,2.3899,2.3908,2.4093,2.4098,2.4102,2.4164,2.4162,2.4159,2.4156,2.4421,2.4434,2.4447,2.4582,0,0,2.4488,2.4493,0,0,0,0,0,0,0,0,2.3592,2.3621,2.3886,2.3895,2.3905,2.4093,2.4038,2.4263,2.4165,2.4067,2.4158,2.4155,2.4319,2.434,2.4395,2.4594,2.4606,2.4489,2.4497,2.4502,2.4506,0,0,0,0,0,0,0,2.3576,2.361,2.3935,2.389,2.3902,2.3918,2.3946,2.4081,2.4204,2.4075,2.4081,2.4111,2.4323,2.4382,2.4402,2.461,2.4488,2.45,2.4508,2.4513,2.4935,2.4938,0,0,0,0,0,0,2.3549,2.3596,2.3927,2.3943,2.3739,2.3928,2.396,2.4036,2.4203,2.4226,2.4113,2.4113,2.4361,2.4387,2.4412,2.4583,2.4502,2.4515,2.4522,2.4932,2.4936,2.494,0,0,0,0,0,0,2.3539,2.3577,2.3916,2.3771,2.3816,2.3938,2.4023,2.4042,2.4101,2.4231,2.4254,2.4151,2.436,2.4393,2.454,2.4593,2.4521,2.4533,2.4928,2.4933,2.4938,2.4923,0,0,0,0,0,0,2.3526,2.3574,2.3626,2.3772,2.3823,2.4039,2.4026,2.4049,2.4124,2.4127,2.4273,2.4294,2.436,2.452,2.4553,2.461,2.4543,2.4924,2.493,2.4936,2.492,2.4927,2.4934,0,0,0,0,0,2.3509,2.361,2.3628,2.3667,2.3891,2.4042,2.4071,2.4145,2.4128,2.4182,2.4266,2.429,2.4581,2.4534,2.4572,2.4633,2.4921,2.4929,2.4936,2.4917,2.4926,2.4933,0,0,0,0,0,0,2.3466,2.3631,2.3652,2.3803,2.3908,2.4052,2.4122,2.4152,2.4264,2.4262,2.4349,2.4381,2.4523,2.4593,2.4537,2.4774,2.4751,2.4766,2.4723,2.4733,2.474,2.4721,2.4554,0,0,0,0,0,2.3474,2.3583,2.3721,2.3841,2.3893,2.3998,2.4067,2.4115,2.4227,2.4272,2.4367,2.4474,2.4591,2.4665,2.4779,2.493,2.4964,2.4991,2.4998,2.5003,2.5016,2.5103,2.5118,2.4964,2.4964,2.4964,0,0,2.3492,2.3595,2.3659,2.3835,2.3922,2.4034,2.4035,2.4153,2.4237,2.429,2.4435,2.4508,2.4634,2.4784,2.4854,2.4847,2.5066,2.5012,2.5015,2.5026,2.5112,2.5127,2.5139,2.4969,2.4968,2.4967,0,0,2.3582,2.367,2.3782,2.3869,2.4001,2.4071,2.4098,2.4238,2.4289,2.4436,2.4479,2.458,2.4777,2.4867,2.4938,2.5063,2.5091,2.5098,2.5135,2.5219,2.5231,2.5243,2.529,2.5305,2.511,2.511,2.511,0,2.3587,2.3758,2.3835,2.3952,2.4029,2.4082,2.4196,2.4277,2.444,2.4492,2.448,2.4732,2.482,2.4993,2.5024,2.5079,2.5113,2.5082,2.5223,2.5235,2.5247,2.5293,2.531,2.511,2.511,2.511,2.511,0,2.3759,2.3876,2.395,2.4107,2.4193,2.4307,2.4402,2.4479,2.452,2.4591,2.4741,2.4849,2.4988,2.5032,2.5072,2.5211,2.5202,2.5206,2.5185,2.5261,2.5306,2.5324,2.511,2.511,2.511,2.511,0,0,2.3829,2.4029,2.4055,2.4128,2.4278,2.4371,2.4488,2.4624,2.4689,2.4799,2.4901,2.5068,2.5073,2.5154,2.5205,2.5279,2.5375,2.5274,2.5278,2.5291,2.5537,2.5535,2.5554,2.5393,2.5397,2.5399,2.5528,0,2.394,2.4152,2.4226,2.4402,2.4512,2.4565,2.4668,2.4772,2.4842,2.4946,2.5023,2.5141,2.5137,2.5187,2.5262,2.5347,2.5426,2.5338,2.549,2.5495,2.5459,2.5577,2.5575,2.5691,2.5545,2.5548,2.5551,0,2.4097,2.4211,2.4398,2.4537,2.4586,2.4677,2.4809,2.4908,2.5027,2.5073,2.5164,2.521,2.5336,2.5306,2.5482,2.5421,2.5488,2.5539,2.5545,2.5564,2.5528,2.5601,2.5729,2.5747,2.5578,2.5576,2.5574,0,2.4132,2.4332,2.4471,2.4531,2.4696,2.476,2.4831,2.4948,2.5026,2.514,2.5192,2.5319,2.539,2.5488,2.5568,2.5538,2.5738,2.5714,2.5781,2.5779,2.5821,2.5818,2.5964,2.586,2.586,2.586,2.5859,0,2.4249,2.4362,2.449,2.4575,2.4704,2.4787,2.4912,2.4987,2.5091,2.5193,2.5245,2.534,2.5439,2.5546,2.5609,2.5747,2.5777,2.5819,2.5835,2.5816,2.5811,2.5862,2.5857,2.5864,2.5863,2.5862,2.5862,0,2.431,2.44,2.4556,2.47,2.4739,2.4827,2.4951,2.5037,2.5109,2.5237,2.5272,2.5385,2.5515,2.5604,2.577,2.5812,2.5962,2.5976,2.5922,2.593,2.5993,2.5987,2.6179,2.6209,2.6082,2.6084,2.6084,0,2.438,2.4469,2.4623,2.4695,2.4767,2.4882,2.4963,2.5048,2.513,2.5274,2.5342,2.5475,2.5587,2.5791,2.5889,2.6016,2.6035,2.6093,2.6054,2.6033,2.6039,2.6033,2.6044,2.61,2.6101,2.6101,2.6102,0,2.4495,2.4535,2.4649,2.4779,2.4873,2.498,2.5086,2.5142,2.5247,2.5336,2.5469,2.5555,2.5726,2.5858,2.5995,2.607,2.6105,2.6113,2.6136,2.6118,2.6085,2.6106,2.5941,2.6109,2.6108,2.6108,2.6107,2.6107,2.4564,2.4647,2.4769,2.4894,2.4984,2.5083,2.5171,2.5255,2.5368,2.5514,2.5557,2.5697,2.5816,2.6004,2.6081,2.6192,2.6187,2.6219,2.6228,2.6235,2.6236,2.6065,2.6217,2.6217,2.6217,2.6217,2.6216,0,2.4684,2.4765,2.488,2.5029,2.5128,2.5151,2.5271,2.5353,2.5475,2.5583,2.5692,2.5847,2.5976,2.6084,2.6218,2.6286,2.6305,2.6318,2.6315,2.6332,2.6231,2.62,2.6301,2.6301,2.6301,2.6301,2.6301,2.6301,2.4758,2.4899,2.4954,2.5141,2.5222,2.536,2.5426,2.5519,2.5606,2.5776,2.5884,2.5954,2.6063,2.6206,2.6326,2.6355,2.6402,2.6412,2.6445,2.6349,2.6339,2.633,2.6301,2.6421,2.6421,2.6537,2.6538,2.6539]},{"header":{"parameterUnit":"m.s-1","parameterCategory":1,"la1":30.2991,"la2":30.254,"lo1":-89.0895,"lo2":-89.0444,"dx":0.0017,"dy":0.0017,"nx":28,"ny":28,"refTime":"2022-12-29T09:00:00:Z","depth":0,"parameterNumber":3,"parameterNumberName":"V-component_of_WINDS"},"data":[0,0,0,0,0,0,0,0,0,0,0,0,0,0,0,0,0,0,0,0,0,0,0,0,0,0,0,0,0,0,0,0,0,0,0,0,0,0,0,0,0,0,0,0,0,0,0,0,0,0,0,0,0,0,0,0,0,0,-0.697,-0.6972,0,-0.7171,-0.7173,-0.7176,-0.7194,-0.7192,-0.7189,-0.7187,-0.7407,-0.7414,-0.7422,0,0,0,0,0,0,0,0,0,0,0,0,0,-0.6615,-0.6622,-0.697,-0.6973,-0.6975,-0.7171,-0.7174,-0.7176,-0.7194,-0.7191,-0.7189,-0.7186,-0.7404,-0.7413,-0.7423,0,0,0,0,0,0,0,0,0,0,0,0,0,-0.6788,-0.6624,-0.697,-0.7007,-0.7012,-0.717,-0.7174,-0.7177,-0.7195,-0.7191,-0.7188,-0.7185,-0.7401,-0.7412,-0.7424,-0.7562,0,0,-0.746,-0.7465,0,0,0,0,0,0,0,0,-0.6779,-0.6802,-0.6999,-0.7005,-0.7011,-0.7154,-0.7129,-0.7307,-0.7196,-0.7126,-0.7187,-0.7183,-0.7326,-0.7344,-0.7389,-0.7572,-0.7582,-0.7461,-0.7468,-0.7473,-0.7477,0,0,0,0,0,0,0,-0.6767,-0.6793,-0.705,-0.7002,-0.7009,-0.7019,-0.7039,-0.7163,-0.7242,-0.7132,-0.7133,-0.7156,-0.7329,-0.7378,-0.7394,-0.7585,-0.7461,-0.7471,-0.7479,-0.7483,-0.7896,-0.79,0,0,0,0,0,0,-0.6746,-0.6783,-0.7044,-0.7056,-0.6884,-0.7027,-0.7051,-0.7112,-0.7241,-0.7257,-0.7159,-0.7156,-0.7359,-0.7381,-0.7402,-0.7575,-0.7473,-0.7484,-0.7491,-0.7892,-0.7897,-0.7901,0,0,0,0,0,0,-0.6738,-0.6769,-0.7036,-0.692,-0.6955,-0.7037,-0.7105,-0.7117,-0.7166,-0.7261,-0.7277,-0.7193,-0.7357,-0.7386,-0.7522,-0.7583,-0.749,-0.75,-0.7887,-0.7894,-0.7899,-0.792,0,0,0,0,0,0,-0.6728,-0.6766,-0.6816,-0.6921,-0.696,-0.7148,-0.7109,-0.7123,-0.7185,-0.7183,-0.7298,-0.7314,-0.7357,-0.7504,-0.7534,-0.7597,-0.751,-0.7883,-0.789,-0.7897,-0.7914,-0.7926,-0.7935,0,0,0,0,0,-0.6715,-0.6816,-0.6818,-0.685,-0.7024,-0.7151,-0.7175,-0.7219,-0.7189,-0.7243,-0.7304,-0.731,-0.757,-0.7518,-0.7552,-0.7619,-0.7879,-0.7888,-0.7896,-0.7909,-0.7923,-0.7935,0,0,0,0,0,0,-0.6721,-0.683,-0.6834,-0.6971,-0.7051,-0.7154,-0.7223,-0.7232,-0.7325,-0.7321,-0.7375,-0.7401,-0.7536,-0.7592,-0.7531,-0.7762,-0.7722,-0.7738,-0.7721,-0.7735,-0.7745,-0.7731,-0.7519,0,0,0,0,0,-0.6737,-0.6826,-0.6919,-0.7032,-0.7071,-0.714,-0.7197,-0.7223,-0.7311,-0.7346,-0.7417,-0.7506,-0.7608,-0.7674,-0.7773,-0.7921,-0.7949,-0.7985,-0.7995,-0.8004,-0.8018,-0.8105,-0.8123,-0.793,-0.793,-0.7929,0,0,-0.6774,-0.6844,-0.6899,-0.7035,-0.71,-0.7196,-0.7168,-0.7271,-0.7345,-0.7363,-0.7496,-0.7551,-0.7654,-0.7797,-0.7865,-0.7848,-0.8077,-0.8015,-0.8021,-0.8031,-0.8115,-0.8134,-0.815,-0.7936,-0.7935,-0.7934,0,0,-0.6889,-0.695,-0.7051,-0.7116,-0.7214,-0.7259,-0.7283,-0.7385,-0.7421,-0.7554,-0.7571,-0.7661,-0.7835,-0.7908,-0.7968,-0.8111,-0.8122,-0.8142,-0.82,-0.8283,-0.8298,-0.8312,-0.8367,-0.8386,-0.8156,-0.8156,-0.8156,0,-0.6924,-0.7065,-0.7104,-0.7205,-0.7267,-0.7283,-0.7389,-0.7452,-0.7579,-0.7623,-0.7601,-0.782,-0.789,-0.8053,-0.8088,-0.8134,-0.8168,-0.8131,-0.8292,-0.8306,-0.832,-0.8374,-0.8394,-0.8158,-0.8158,-0.8157,-0.8157,0,-0.7104,-0.7202,-0.7273,-0.739,-0.7459,-0.7563,-0.7622,-0.7688,-0.7709,-0.7758,-0.7895,-0.7979,-0.8097,-0.8137,-0.816,-0.8304,-0.8291,-0.828,-0.8242,-0.834,-0.8391,-0.8412,-0.8161,-0.816,-0.8159,-0.8159,0,0,-0.7231,-0.7367,-0.7393,-0.7447,-0.7556,-0.7635,-0.7741,-0.7852,-0.7909,-0.7997,-0.809,-0.8237,-0.8227,-0.8295,-0.8327,-0.8399,-0.8513,-0.838,-0.8383,-0.8405,-0.8682,-0.8692,-0.8714,-0.8518,-0.8522,-0.8526,-0.8675,0,-0.7362,-0.7546,-0.7584,-0.7746,-0.7839,-0.7856,-0.7949,-0.8029,-0.8078,-0.8168,-0.8224,-0.8327,-0.8305,-0.8347,-0.8419,-0.8483,-0.857,-0.8472,-0.8612,-0.8616,-0.8588,-0.8741,-0.8752,-0.8888,-0.8694,-0.8698,-0.87,0,-0.7539,-0.7626,-0.7796,-0.7893,-0.7934,-0.8016,-0.8122,-0.8206,-0.8298,-0.8329,-0.8404,-0.8428,-0.8544,-0.8498,-0.8662,-0.8595,-0.8655,-0.8695,-0.8702,-0.8719,-0.8666,-0.8766,-0.8932,-0.8954,-0.8731,-0.8729,-0.8727,0,-0.7619,-0.7779,-0.7901,-0.7947,-0.8063,-0.8121,-0.8173,-0.8262,-0.8326,-0.842,-0.8464,-0.8571,-0.8631,-0.8716,-0.8771,-0.8731,-0.8932,-0.8889,-0.8966,-0.8965,-0.901,-0.9007,-0.9191,-0.9042,-0.9042,-0.9041,-0.9041,0,-0.7763,-0.7867,-0.7939,-0.8015,-0.8133,-0.8178,-0.8296,-0.8348,-0.8427,-0.8518,-0.854,-0.8625,-0.8689,-0.8785,-0.8829,-0.896,-0.8987,-0.9019,-0.903,-0.9019,-0.9015,-0.9061,-0.9055,-0.9047,-0.9045,-0.9044,-0.9043,0,-0.7874,-0.7925,-0.806,-0.8158,-0.8185,-0.8268,-0.8355,-0.8432,-0.848,-0.8594,-0.8624,-0.8702,-0.8816,-0.8877,-0.9021,-0.905,-0.9199,-0.9203,-0.9167,-0.9172,-0.9246,-0.924,-0.947,-0.9504,-0.9328,-0.9329,-0.9331,0,-0.7963,-0.8043,-0.8148,-0.8208,-0.826,-0.8356,-0.8421,-0.8469,-0.8537,-0.8649,-0.8714,-0.8827,-0.8922,-0.9104,-0.9177,-0.9288,-0.9298,-0.9371,-0.9315,-0.9303,-0.9304,-0.93,-0.9311,-0.9382,-0.9383,-0.9385,-0.9386,0,-0.8119,-0.814,-0.823,-0.8331,-0.8406,-0.8489,-0.8571,-0.862,-0.8682,-0.8758,-0.8872,-0.8945,-0.909,-0.9206,-0.9322,-0.9382,-0.9397,-0.9402,-0.9426,-0.9418,-0.9395,-0.9412,-0.9197,-0.9397,-0.9396,-0.9395,-0.9395,-0.9394,-0.8225,-0.8298,-0.8383,-0.8484,-0.8549,-0.8625,-0.8703,-0.8759,-0.8853,-0.8972,-0.8996,-0.9119,-0.9213,-0.937,-0.9433,-0.9533,-0.9519,-0.9553,-0.9563,-0.9572,-0.9577,-0.9375,-0.9554,-0.9554,-0.9553,-0.9553,-0.9553,0,-0.8386,-0.844,-0.8532,-0.8644,-0.8724,-0.8724,-0.8815,-0.8885,-0.899,-0.9073,-0.9164,-0.9298,-0.941,-0.9491,-0.9606,-0.9671,-0.9681,-0.9701,-0.9699,-0.9713,-0.958,-0.9549,-0.9691,-0.9691,-0.969,-0.969,-0.969,-0.969,-0.8478,-0.8602,-0.8634,-0.8792,-0.8848,-0.8964,-0.9016,-0.9088,-0.9155,-0.9302,-0.9393,-0.9443,-0.9527,-0.9649,-0.9754,-0.9775,-0.9819,-0.9838,-0.9861,-0.9736,-0.9722,-0.9708,-0.968,-0.9846,-0.9846,-0.9986,-0.9987,-0.9988]}]]